137  
ASUS41 KCLE 241912  
RWRCLE  
OHIO REGIONAL WEATHER ROUNDUP  
NATIONAL WEATHER SERVICE WILMINGTON, OH  
300 PM EDT SUN MAR 24 2019  
 
NOTE: "FAIR" INDICATES FEW OR NO CLOUDS BELOW 12,000 FEET WITH NO  
SIGNIFICANT WEATHER AND/OR S TO VISIBILITY
.  
 
OHZ001>008-015>018-024>027-034-035-043-044-242000-  
NORTHWEST OHIO  
 
CITY SKY/WX TMP DP RH WIND PRES REMARKS
 
DEFIANCE CLOUDY 50 35 56 NW5 30.11F  
FINDLAY PTSUNNY 58 28 32 W12 30.09F  
TOLEDO EXPRESS CLOUDY 51 30 44 W12 30.10F  
TOLEDO EXEC CLOUDY 50 30 46 W9 30.10F  
LIMA CLOUDY 58 28 32 SW10 30.10F  

 
 
OHZ009>014-019>023-028>033-038-089-242000-  
NORTHEAST OHIO  
 
CITY SKY/WX TMP DP RH WIND PRES REMARKS
 
CLE-HOPKINS CLOUDY 56 25 30 SW12 30.11F  
CLE-LAKEFRONT CLOUDY 51 25 36 CALM 30.09F  
CUY CO. ARPT CLOUDY 54 25 32 S9 30.09F  
LORAIN-ELYRIA PTSUNNY 55 24 30 W15 30.10F  
ASHTABULA CLOUDY 51 24 34 S10 30.09F  
AKRON-CANTON CLOUDY 55 22 27 W13 30.11F  
WOOSTER FAIR 55 25 31 SW10 30.11F  
MANSFIELD PTSUNNY 54 24 31 SW12 30.10F  
YOUNGSTOWN CLOUDY 52 23 32 SW10 30.10F  

 
 
OHZ042-051>053-060>062-070>072-077>081-242000-  
SOUTHWEST OHIO  
 
CITY SKY/WX TMP DP RH WIND PRES REMARKS
 
CINC-COVINGTON CLOUDY 60 23 24 S8 30.12F  
CINC-LUNKEN CLOUDY 61 27 27 SW8 30.13F  
HAMILTON CLOUDY 59 25 27 W9 30.14F  
DAYTON CLOUDY 58 22 24 SW9 30.12F  
WRIGHT-PAT AFB CLOUDY 58 20 23 SW8 30.11F  
DAYTON GENERAL CLOUDY 59 18 20 W8 30.11F  
WILMINGTON CLOUDY 58 19 22 W13 30.11F  

 
 
OHZ036-037-039>041-045>050-054>059-063>069-073>076-082>088-242000-  
CENTRAL AND SOUTHEAST OHIO  
 
CITY SKY/WX TMP DP RH WIND PRES REMARKS
 
COLUMBUS PTSUNNY 60 20 21 SW8 30.11F  
OSU AIRPORT FAIR 59 23 25 SW9 30.10F  
BOLTON FIELD SUNNY 61 25 25 SW9 30.11F  
RICKENBACK AFB FAIR 60 21 21 W7 30.10F  
NEWARK FAIR 61 24 24 SW6 30.10F  
MARION CLOUDY 56 22 26 SW9 30.11F  
LANCASTER FAIR 61 23 23 SW7 30.12F  
ZANESVILLE FAIR 60 20 21 W7 30.12F  
NEW PHILLY CLOUDY 55 19 24 SW9 30.13F  

 
 
 
CLICK HERE TO GO TO PREVIOUS BULLETINS.

The Nexlab OH Page
The Nexlab PA Page Main Text Page